Tracking 29510 objects as of 16-Sep-2024
HD Live streaming from Space Station
objects crossing your sky now

STARLINK-5304

Track STARLINK-5304 now!
10-day predictions
STARLINK-5304 is classified as:


NORAD ID: 54843
Int'l Code: 2022-177Z
Perigee: 565.0 km
Apogee: 567.4 km
Inclination: 43.0 °
Period: 95.8 minutes
Semi major axis: 6937 km
RCS: Unknown
Launch date: December 28, 2022
Source: United States (US)
Launch site: AIR FORCE EASTERN TEST RANGE (AFETR)
Your satellite tracking list
Your tracking list is empty




NASA's NSSDC Master Catalog

Two Line Element Set (TLE):
1 54843U 22177Z   24259.52044412  .00002077  00000-0  16870-3 0  9998
2 54843  43.0027 188.1334 0001724 266.9759  93.0886 15.02548923 94723
Source of the keplerian elements: AFSPC